Time,TemperatureF,DewpointF,PressureIn,WindDirection,WindDirectionDegrees,WindSpeedMPH,WindSpeedGustMPH,Humidity,HourlyPrecipIn,Conditions,Clouds,dailyrainin,SoftwareType,DateUTC
2013-12-10 00:01:00,14.2,4.3,30.30,SSW,202,0.0,0.0,64,0.00,,---,0.00,VWS V14.01,2013-12-10 07:01:00,
2013-12-10 00:06:00,14.8,4.2,30.30,SW,225,0.0,0.0,62,0.00,,---,0.00,VWS V14.01,2013-12-10 07:06:00,
2013-12-10 00:11:00,14.6,4.3,30.30,SE,135,0.0,0.0,63,0.00,,---,0.00,VWS V14.01,2013-12-10 07:11:00,
2013-12-10 00:16:00,14.4,4.8,30.30,SE,135,0.4,0.4,65,0.00,,---,0.00,VWS V14.01,2013-12-10 07:16:00,
2013-12-10 00:21:00,14.4,4.5,30.30,East,90,0.4,0.4,64,0.00,,---,0.00,VWS V14.01,2013-12-10 07:21:00,
2013-12-10 00:26:00,14.2,4.3,30.30,East,90,0.4,0.4,64,0.00,,---,0.00,VWS V14.01,2013-12-10 07:26:00,
2013-12-10 00:31:00,14.0,3.7,30.29,NE,45,1.3,1.3,63,0.00,,---,0.00,VWS V14.01,2013-12-10 07:31:00,
2013-12-10 00:36:00,14.2,3.9,30.29,ENE,68,1.3,1.3,63,0.00,,---,0.00,VWS V14.01,2013-12-10 07:36:00,
2013-12-10 00:41:00,14.4,3.8,30.29,ENE,68,0.2,0.2,62,0.00,,---,0.00,VWS V14.01,2013-12-10 07:41:00,
2013-12-10 00:46:00,14.2,3.9,30.29,ENE,68,0.9,0.9,63,0.00,,---,0.00,VWS V14.01,2013-12-10 07:46:00,
2013-12-10 00:51:00,14.0,3.7,30.30,ENE,68,0.4,0.4,63,0.00,,---,0.00,VWS V14.01,2013-12-10 07:51:00,
2013-12-10 00:56:00,14.2,3.9,30.30,East,90,1.1,1.1,63,0.00,,---,0.00,VWS V14.01,2013-12-10 07:56:00,
2013-12-10 01:01:00,14.2,3.9,30.30,ENE,68,1.6,1.6,63,0.00,,---,0.00,VWS V14.01,2013-12-10 08:01:00,
2013-12-10 01:06:00,14.6,4.0,30.30,ENE,68,2.2,2.2,62,0.00,,---,0.00,VWS V14.01,2013-12-10 08:06:00,
2013-12-10 01:11:00,14.8,3.8,30.30,East,90,1.1,1.1,61,0.00,,---,0.00,VWS V14.01,2013-12-10 08:11:00,
2013-12-10 01:16:00,14.8,3.4,30.30,ENE,68,2.5,2.5,60,0.00,,---,0.00,VWS V14.01,2013-12-10 08:16:00,
2013-12-10 01:21:00,14.9,3.2,30.30,NE,45,3.1,3.1,59,0.00,,---,0.00,VWS V14.01,2013-12-10 08:21:00,
2013-12-10 01:26:00,14.9,2.8,30.30,North,0,1.8,1.8,58,0.00,,---,0.00,VWS V14.01,2013-12-10 08:26:00,
2013-12-10 01:31:00,14.8,2.7,30.30,North,0,2.2,2.2,58,0.00,,---,0.00,VWS V14.01,2013-12-10 08:31:00,
2013-12-10 01:36:00,15.1,3.0,30.30,North,0,4.7,4.7,58,0.00,,---,0.00,VWS V14.01,2013-12-10 08:36:00,
2013-12-10 01:41:00,15.5,3.0,30.30,North,0,2.9,2.9,57,0.00,,---,0.00,VWS V14.01,2013-12-10 08:41:00,
2013-12-10 01:46:00,15.5,3.0,30.31,NE,45,2.5,2.5,57,0.00,,---,0.00,VWS V14.01,2013-12-10 08:46:00,
2013-12-10 01:51:00,15.5,3.0,30.31,NNE,22,2.0,2.0,57,0.00,,---,0.00,VWS V14.01,2013-12-10 08:51:00,
2013-12-10 01:56:00,15.5,3.0,30.31,NNE,22,0.2,0.2,57,0.00,,---,0.00,VWS V14.01,2013-12-10 08:56:00,
2013-12-10 02:01:00,15.5,2.6,30.31,North,0,4.0,4.0,56,0.00,,---,0.00,VWS V14.01,2013-12-10 09:01:00,
2013-12-10 02:04:00,15.7,2.8,30.31,NE,45,6.0,6.0,56,0.00,,---,0.00,VWS V14.01,2013-12-10 09:04:00,
2013-12-10 02:09:00,16.2,2.5,30.31,ENE,68,5.4,5.4,54,0.00,,---,0.00,VWS V14.01,2013-12-10 09:09:00,
2013-12-10 02:14:00,16.7,2.1,30.31,North,0,3.6,3.6,52,0.00,,---,0.00,VWS V14.01,2013-12-10 09:14:00,
2013-12-10 02:19:00,16.7,2.1,30.31,NE,45,4.7,4.7,52,0.00,,---,0.00,VWS V14.01,2013-12-10 09:19:00,
2013-12-10 02:24:00,16.7,2.1,30.31,North,0,5.4,5.4,52,0.00,,---,0.00,VWS V14.01,2013-12-10 09:24:00,
2013-12-10 02:29:00,17.1,2.1,30.32,NNE,22,7.4,7.4,51,0.00,,---,0.00,VWS V14.01,2013-12-10 09:29:00,
2013-12-10 02:34:00,17.3,2.3,30.32,NE,45,7.6,7.6,51,0.00,,---,0.00,VWS V14.01,2013-12-10 09:34:00,
2013-12-10 02:39:00,17.3,2.3,30.31,ENE,68,9.2,9.2,51,0.00,,---,0.00,VWS V14.01,2013-12-10 09:39:00,
2013-12-10 02:44:00,17.5,2.0,30.31,ENE,68,4.0,4.0,50,0.00,,---,0.00,VWS V14.01,2013-12-10 09:44:00,
2013-12-10 02:49:00,17.3,1.4,30.31,NW,315,7.4,7.4,49,0.00,,---,0.00,VWS V14.01,2013-12-10 09:49:00,
2013-12-10 02:53:00,17.6,1.3,30.30,NE,45,13.0,13.0,48,0.00,,---,0.00,VWS V14.01,2013-12-10 09:53:00,
2013-12-10 02:58:00,17.5,1.6,30.30,NNE,22,6.3,6.3,49,0.00,,---,0.00,VWS V14.01,2013-12-10 09:58:00,
2013-12-10 03:03:00,17.3,1.4,30.30,NE,45,14.5,14.5,49,0.00,,---,0.00,VWS V14.01,2013-12-10 10:03:00,
2013-12-10 03:08:00,17.3,1.4,30.29,NNE,22,9.8,9.8,49,0.00,,---,0.00,VWS V14.01,2013-12-10 10:08:00,
2013-12-10 03:13:00,17.1,1.2,30.28,North,0,8.1,8.1,49,0.00,,---,0.00,VWS V14.01,2013-12-10 10:13:00,
2013-12-10 03:18:00,17.1,1.7,30.28,NE,45,2.9,2.9,50,0.00,,---,0.00,VWS V14.01,2013-12-10 10:18:00,
2013-12-10 03:23:00,17.1,1.2,30.28,North,0,5.1,5.1,49,0.00,,---,0.00,VWS V14.01,2013-12-10 10:23:00,
2013-12-10 03:28:00,16.9,1.1,30.28,NE,45,7.8,7.8,49,0.00,,---,0.00,VWS V14.01,2013-12-10 10:28:00,
2013-12-10 03:33:00,17.1,1.7,30.28,ENE,68,7.4,7.4,50,0.00,,---,0.00,VWS V14.01,2013-12-10 10:33:00,
2013-12-10 03:38:00,17.1,1.7,30.27,North,0,3.8,3.8,50,0.00,,---,0.00,VWS V14.01,2013-12-10 10:38:00,
2013-12-10 03:43:00,17.1,1.7,30.27,NNE,22,8.5,8.5,50,0.00,,---,0.00,VWS V14.01,2013-12-10 10:43:00,
2013-12-10 03:48:00,17.1,1.7,30.27,NE,45,3.8,3.8,50,0.00,,---,0.00,VWS V14.01,2013-12-10 10:48:00,
2013-12-10 03:53:00,16.9,1.5,30.27,NNE,22,2.5,2.5,50,0.00,,---,0.00,VWS V14.01,2013-12-10 10:53:00,
2013-12-10 03:58:00,16.9,1.5,30.27,NNW,338,8.1,8.1,50,0.00,,---,0.00,VWS V14.01,2013-12-10 10:58:00,
2013-12-10 04:03:00,16.9,1.5,30.26,NE,45,4.3,4.3,50,0.00,,---,0.00,VWS V14.01,2013-12-10 11:03:00,
2013-12-10 04:08:00,16.9,1.5,30.26,North,0,7.4,7.4,50,0.00,,---,0.00,VWS V14.01,2013-12-10 11:08:00,
2013-12-10 04:13:00,16.9,1.5,30.25,North,0,7.2,7.2,50,0.00,,---,0.00,VWS V14.01,2013-12-10 11:13:00,
2013-12-10 04:18:00,16.7,1.3,30.26,NE,45,5.8,5.8,50,0.00,,---,0.00,VWS V14.01,2013-12-10 11:18:00,
2013-12-10 04:23:00,16.4,1.5,30.26,NNE,22,1.3,1.3,51,0.00,,---,0.00,VWS V14.01,2013-12-10 11:23:00,
2013-12-10 04:28:00,16.2,1.3,30.25,NNW,338,5.1,5.1,51,0.00,,---,0.00,VWS V14.01,2013-12-10 11:28:00,
2013-12-10 04:33:00,16.2,1.3,30.25,NNW,338,3.6,3.6,51,0.00,,---,0.00,VWS V14.01,2013-12-10 11:33:00,
2013-12-10 04:38:00,16.0,1.5,30.25,NW,315,3.6,3.6,52,0.00,,---,0.00,VWS V14.01,2013-12-10 11:38:00,
2013-12-10 04:43:00,15.7,1.2,30.26,NW,315,0.7,0.7,52,0.00,,---,0.00,VWS V14.01,2013-12-10 11:43:00,
2013-12-10 04:48:00,15.5,1.4,30.26,North,0,1.3,1.3,53,0.00,,---,0.00,VWS V14.01,2013-12-10 11:48:00,
2013-12-10 04:53:00,15.3,1.2,30.26,NNW,338,4.0,4.0,53,0.00,,---,0.00,VWS V14.01,2013-12-10 11:53:00,
2013-12-10 04:58:00,15.1,1.5,30.26,North,0,4.0,4.0,54,0.00,,---,0.00,VWS V14.01,2013-12-10 11:58:00,
2013-12-10 05:03:00,14.8,1.2,30.26,North,0,2.9,2.9,54,0.00,,---,0.00,VWS V14.01,2013-12-10 12:03:00,
2013-12-10 05:08:00,14.8,1.6,30.26,North,0,1.1,1.1,55,0.00,,---,0.00,VWS V14.01,2013-12-10 12:08:00,
2013-12-10 05:13:00,14.6,1.4,30.25,North,0,1.1,1.1,55,0.00,,---,0.00,VWS V14.01,2013-12-10 12:13:00,
2013-12-10 05:18:00,14.2,1.4,30.25,East,90,1.8,1.8,56,0.00,,---,0.00,VWS V14.01,2013-12-10 12:18:00,
2013-12-10 05:23:00,14.2,1.4,30.25,ENE,68,0.0,0.0,56,0.00,,---,0.00,VWS V14.01,2013-12-10 12:23:00,
2013-12-10 05:28:00,14.0,1.6,30.25,North,0,0.4,0.4,57,0.00,,---,0.00,VWS V14.01,2013-12-10 12:28:00,
2013-12-10 05:33:00,13.9,1.5,30.26,West,270,0.0,0.0,57,0.00,,---,0.00,VWS V14.01,2013-12-10 12:33:00,
2013-12-10 05:38:00,13.3,0.9,30.26,NW,315,1.1,1.1,57,0.00,,---,0.00,VWS V14.01,2013-12-10 12:38:00,
2013-12-10 05:43:00,13.5,1.5,30.25,West,270,0.9,0.9,58,0.00,,---,0.00,VWS V14.01,2013-12-10 12:43:00,
2013-12-10 05:48:00,13.3,1.3,30.26,WSW,248,1.1,1.1,58,0.00,,---,0.00,VWS V14.01,2013-12-10 12:48:00,
2013-12-10 05:53:00,13.3,1.7,30.26,SW,225,0.7,0.7,59,0.00,,---,0.00,VWS V14.01,2013-12-10 12:53:00,
2013-12-10 05:58:00,13.1,1.8,30.26,West,270,0.4,0.4,60,0.00,,---,0.00,VWS V14.01,2013-12-10 12:58:00,
2013-12-10 06:03:00,13.0,1.7,30.26,WSW,248,1.3,1.3,60,0.00,,---,0.00,VWS V14.01,2013-12-10 13:03:00,
2013-12-10 06:08:00,12.6,1.7,30.26,West,270,1.1,1.1,61,0.00,,---,0.00,VWS V14.01,2013-12-10 13:08:00,
2013-12-10 06:13:00,12.4,1.9,30.26,WSW,248,1.1,1.1,62,0.00,,---,0.00,VWS V14.01,2013-12-10 13:13:00,
2013-12-10 06:18:00,12.2,1.3,30.26,WNW,292,0.2,0.2,61,0.00,,---,0.00,VWS V14.01,2013-12-10 13:18:00,
2013-12-10 06:23:00,11.9,1.0,30.26,NNW,338,0.4,0.4,61,0.00,,---,0.00,VWS V14.01,2013-12-10 13:23:00,
2013-12-10 06:28:00,11.9,1.7,30.26,WNW,292,0.7,0.7,63,0.00,,---,0.00,VWS V14.01,2013-12-10 13:28:00,
2013-12-10 06:33:00,11.7,1.5,30.26,West,270,0.4,0.4,63,0.00,,---,0.00,VWS V14.01,2013-12-10 13:33:00,
2013-12-10 06:38:00,11.3,1.5,30.26,West,270,0.0,0.0,64,0.00,,---,0.00,VWS V14.01,2013-12-10 13:38:00,
2013-12-10 06:43:00,11.2,1.7,30.26,WSW,248,0.0,0.0,65,0.00,,---,0.00,VWS V14.01,2013-12-10 13:43:00,
2013-12-10 06:48:00,11.2,2.1,30.26,WSW,248,0.0,0.0,66,0.00,,---,0.00,VWS V14.01,2013-12-10 13:48:00,
2013-12-10 06:53:00,10.8,1.4,30.26,WSW,248,0.0,0.0,65,0.00,,---,0.00,VWS V14.01,2013-12-10 13:53:00,
2013-12-10 06:58:00,10.6,0.8,30.26,WNW,292,0.9,0.9,64,0.00,,---,0.00,VWS V14.01,2013-12-10 13:58:00,
2013-12-10 07:03:00,10.6,1.8,30.26,WNW,292,0.9,0.9,67,0.00,,---,0.00,VWS V14.01,2013-12-10 14:03:00,
2013-12-10 07:08:00,10.6,1.5,30.26,WNW,292,0.2,0.2,66,0.00,,---,0.00,VWS V14.01,2013-12-10 14:08:00,
2013-12-10 07:13:00,10.4,2.0,30.26,WSW,248,0.7,0.7,68,0.00,,---,0.00,VWS V14.01,2013-12-10 14:13:00,
2013-12-10 07:18:00,10.4,2.0,30.25,WSW,248,0.0,0.0,68,0.00,,---,0.00,VWS V14.01,2013-12-10 14:18:00,
2013-12-10 07:23:00,10.4,1.6,30.25,WSW,248,0.0,0.0,67,0.00,,---,0.00,VWS V14.01,2013-12-10 14:23:00,
2013-12-10 07:28:00,10.4,2.0,30.25,SW,225,0.0,0.0,68,0.00,,---,0.00,VWS V14.01,2013-12-10 14:28:00,
2013-12-10 07:33:00,12.8,4.9,30.25,ESE,112,0.4,0.4,70,0.00,,---,0.00,VWS V14.01,2013-12-10 14:33:00,
2013-12-10 07:38:00,14.2,5.3,30.25,ESE,112,0.4,0.4,67,0.00,,---,0.00,VWS V14.01,2013-12-10 14:38:00,
2013-12-10 07:43:00,14.9,4.2,30.25,SE,135,0.7,0.7,62,0.00,,---,0.00,VWS V14.01,2013-12-10 14:43:00,
2013-12-10 07:48:00,14.9,4.2,30.25,ESE,112,0.4,0.4,62,0.00,,---,0.00,VWS V14.01,2013-12-10 14:48:00,
2013-12-10 07:53:00,15.3,4.3,30.25,ESE,112,0.4,0.4,61,0.00,,---,0.00,VWS V14.01,2013-12-10 14:53:00,
2013-12-10 07:58:00,14.8,2.7,30.25,ESE,112,0.0,0.0,58,0.00,,---,0.00,VWS V14.01,2013-12-10 14:58:00,
2013-12-10 08:03:00,15.5,4.5,30.25,East,90,0.4,0.4,61,0.00,,---,0.00,VWS V14.01,2013-12-10 15:03:00,
2013-12-10 08:08:00,16.6,5.5,30.25,ENE,68,0.4,0.4,61,0.00,,---,0.00,VWS V14.01,2013-12-10 15:08:00,
2013-12-10 08:13:00,16.9,3.5,30.26,ENE,68,0.9,0.9,55,0.00,,---,0.00,VWS V14.01,2013-12-10 15:13:00,
2013-12-10 08:18:00,15.5,3.0,30.26,ENE,68,1.1,1.1,57,0.00,,---,0.00,VWS V14.01,2013-12-10 15:18:00,
2013-12-10 08:23:00,15.3,3.2,30.25,East,90,1.1,1.1,58,0.00,,---,0.00,VWS V14.01,2013-12-10 15:23:00,
2013-12-10 08:28:00,15.5,3.4,30.26,ENE,68,1.1,1.1,58,0.00,,---,0.00,VWS V14.01,2013-12-10 15:28:00,
2013-12-10 08:33:00,15.7,3.2,30.26,NE,45,1.6,1.6,57,0.00,,---,0.00,VWS V14.01,2013-12-10 15:33:00,
2013-12-10 08:38:00,16.2,4.0,30.26,NNE,22,1.8,1.8,58,0.00,,---,0.00,VWS V14.01,2013-12-10 15:38:00,
2013-12-10 08:43:00,16.9,3.1,30.26,NNE,22,2.7,2.7,54,0.00,,---,0.00,VWS V14.01,2013-12-10 15:43:00,
2013-12-10 08:48:00,17.1,2.9,30.26,NNW,338,1.6,1.6,53,0.00,,---,0.00,VWS V14.01,2013-12-10 15:48:00,
2013-12-10 08:53:00,17.6,3.4,30.27,ENE,68,3.8,3.8,53,0.00,,---,0.00,VWS V14.01,2013-12-10 15:53:00,
2013-12-10 08:58:00,17.6,3.0,30.27,NE,45,2.5,2.5,52,0.00,,---,0.00,VWS V14.01,2013-12-10 15:58:00,
2013-12-10 09:03:00,18.0,2.9,30.27,ENE,68,4.3,4.3,51,0.00,,---,0.00,VWS V14.01,2013-12-10 16:03:00,
2013-12-10 09:08:00,18.4,3.3,30.27,ENE,68,1.6,1.6,51,0.00,,---,0.00,VWS V14.01,2013-12-10 16:08:00,
2013-12-10 09:13:00,18.7,3.6,30.27,NNE,22,2.5,2.5,51,0.00,,---,0.00,VWS V14.01,2013-12-10 16:13:00,
2013-12-10 09:18:00,19.6,4.4,30.27,NE,45,2.2,2.5,51,0.00,,---,0.00,VWS V14.01,2013-12-10 16:18:00,
2013-12-10 09:23:00,20.9,5.2,30.27,East,90,2.7,2.7,50,0.00,,---,0.00,VWS V14.01,2013-12-10 16:23:00,
2013-12-10 09:28:00,21.6,3.5,30.27,ESE,112,1.8,1.8,45,0.00,,---,0.00,VWS V14.01,2013-12-10 16:28:00,
2013-12-10 09:33:00,22.0,3.9,30.27,ENE,68,1.6,1.6,45,0.00,,---,0.00,VWS V14.01,2013-12-10 16:33:00,
2013-12-10 09:38:00,22.9,5.2,30.27,ENE,68,0.0,0.0,46,0.00,,---,0.00,VWS V14.01,2013-12-10 16:38:00,
2013-12-10 09:43:00,23.4,4.7,30.27,SE,135,0.4,0.4,44,0.00,,---,0.00,VWS V14.01,2013-12-10 16:43:00,
2013-12-10 09:48:00,24.3,5.5,30.27,SSE,158,0.0,0.0,44,0.00,,---,0.00,VWS V14.01,2013-12-10 16:48:00,
2013-12-10 09:53:00,25.4,5.5,30.27,South,180,0.4,0.4,42,0.00,,---,0.00,VWS V14.01,2013-12-10 16:53:00,
2013-12-10 09:58:00,25.6,4.6,30.27,ESE,112,1.8,1.8,40,0.00,,---,0.00,VWS V14.01,2013-12-10 16:58:00,
2013-12-10 10:03:00,26.3,6.3,30.27,ESE,112,0.4,0.4,42,0.00,,---,0.00,VWS V14.01,2013-12-10 17:03:00,
2013-12-10 10:08:00,26.5,4.9,30.27,WSW,248,0.9,0.9,39,0.00,,---,0.00,VWS V14.01,2013-12-10 17:08:00,
2013-12-10 10:13:00,25.9,6.0,30.27,NNW,338,0.2,0.2,42,0.00,,---,0.00,VWS V14.01,2013-12-10 17:13:00,
2013-12-10 10:18:00,25.7,5.3,30.27,WNW,292,2.7,2.7,41,0.00,,---,0.00,VWS V14.01,2013-12-10 17:18:00,
2013-12-10 10:23:00,25.4,5.0,30.27,NNW,338,1.1,1.1,41,0.00,,---,0.00,VWS V14.01,2013-12-10 17:23:00,
2013-12-10 10:28:00,25.0,4.1,30.27,West,270,1.1,1.1,40,0.00,,---,0.00,VWS V14.01,2013-12-10 17:28:00,
2013-12-10 10:33:00,24.7,4.4,30.27,West,270,0.9,0.9,41,0.00,,---,0.00,VWS V14.01,2013-12-10 17:33:00,
2013-12-10 10:38:00,24.8,4.4,30.27,SW,225,0.4,0.4,41,0.00,,---,0.00,VWS V14.01,2013-12-10 17:38:00,
2013-12-10 10:43:00,25.2,4.8,30.26,North,0,2.9,2.9,41,0.00,,---,0.00,VWS V14.01,2013-12-10 17:43:00,
2013-12-10 10:48:00,25.2,4.8,30.26,NNW,338,5.1,5.1,41,0.00,,---,0.00,VWS V14.01,2013-12-10 17:48:00,
2013-12-10 10:52:00,24.8,4.4,30.26,NNW,338,3.4,3.4,41,0.00,,---,0.00,VWS V14.01,2013-12-10 17:52:00,
2013-12-10 10:57:00,24.7,4.4,30.26,NNW,338,5.6,5.6,41,0.00,,---,0.00,VWS V14.01,2013-12-10 17:57:00,
2013-12-10 11:02:00,25.4,5.0,30.25,North,0,1.6,1.6,41,0.00,,---,0.00,VWS V14.01,2013-12-10 18:02:00,
2013-12-10 11:07:00,25.9,3.2,30.25,North,0,5.4,5.4,37,0.00,,---,0.00,VWS V14.01,2013-12-10 18:07:00,
2013-12-10 11:12:00,26.8,3.4,30.25,NW,315,0.7,0.7,36,0.00,,---,0.00,VWS V14.01,2013-12-10 18:12:00,
2013-12-10 11:17:00,27.2,3.8,30.25,NNE,22,3.8,3.8,36,0.00,,---,0.00,VWS V14.01,2013-12-10 18:17:00,
2013-12-10 11:22:00,27.5,3.5,30.25,NNE,22,4.9,4.9,35,0.00,,---,0.00,VWS V14.01,2013-12-10 18:22:00,
2013-12-10 11:27:00,27.0,1.1,30.24,NNW,338,4.7,4.7,32,0.00,,---,0.00,VWS V14.01,2013-12-10 18:27:00,
2013-12-10 11:32:00,27.5,3.5,30.24,NW,315,2.0,2.0,35,0.00,,---,0.00,VWS V14.01,2013-12-10 18:32:00,
2013-12-10 11:37:00,28.1,2.7,30.23,NNW,338,3.6,3.6,33,0.00,,---,0.00,VWS V14.01,2013-12-10 18:37:00,
2013-12-10 11:42:00,28.4,3.0,30.22,NW,315,3.8,3.8,33,0.00,,---,0.00,VWS V14.01,2013-12-10 18:42:00,
2013-12-10 11:47:00,27.9,1.9,30.22,NW,315,7.8,7.8,32,0.00,,---,0.00,VWS V14.01,2013-12-10 18:47:00,
2013-12-10 11:52:00,27.7,2.4,30.21,NW,315,4.9,4.9,33,0.00,,---,0.00,VWS V14.01,2013-12-10 18:52:00,
2013-12-10 11:57:00,27.7,2.4,30.21,NNW,338,2.9,2.9,33,0.00,,---,0.00,VWS V14.01,2013-12-10 18:57:00,
2013-12-10 12:02:00,27.9,1.9,30.21,NW,315,5.1,5.1,32,0.00,,---,0.00,VWS V14.01,2013-12-10 19:02:00,
2013-12-10 12:07:00,28.1,2.0,30.20,NNW,338,4.0,4.0,32,0.00,,---,0.00,VWS V14.01,2013-12-10 19:07:00,
2013-12-10 12:12:00,28.4,2.3,30.20,North,0,2.2,2.2,32,0.00,,---,0.00,VWS V14.01,2013-12-10 19:12:00,
2013-12-10 12:17:00,29.2,2.3,30.19,North,0,2.9,2.9,31,0.00,,---,0.00,VWS V14.01,2013-12-10 19:17:00,
2013-12-10 12:22:00,29.5,2.6,30.19,NNE,22,1.8,1.8,31,0.00,,---,0.00,VWS V14.01,2013-12-10 19:22:00,
2013-12-10 12:27:00,30.2,3.2,30.18,NNE,22,5.1,5.1,31,0.00,,---,0.00,VWS V14.01,2013-12-10 19:27:00,
2013-12-10 12:32:00,30.6,3.6,30.18,North,0,3.1,3.1,31,0.00,,---,0.00,VWS V14.01,2013-12-10 19:32:00,
2013-12-10 12:37:00,31.1,3.3,30.18,West,270,1.3,1.3,30,0.00,,---,0.00,VWS V14.01,2013-12-10 19:37:00,
2013-12-10 12:42:00,31.3,3.5,30.18,NNW,338,4.3,4.3,30,0.00,,---,0.00,VWS V14.01,2013-12-10 19:42:00,
2013-12-10 12:47:00,32.0,3.3,30.18,NNW,338,2.9,2.9,29,0.00,,---,0.00,VWS V14.01,2013-12-10 19:47:00,
2013-12-10 12:52:00,31.1,3.3,30.17,NNE,22,5.4,5.4,30,0.00,,---,0.00,VWS V14.01,2013-12-10 19:52:00,
2013-12-10 12:57:00,31.3,3.5,30.17,NW,315,5.1,5.1,30,0.00,,---,0.00,VWS V14.01,2013-12-10 19:57:00,
2013-12-10 13:02:00,31.7,3.8,30.17,NNW,338,2.5,2.5,30,0.00,,---,0.00,VWS V14.01,2013-12-10 20:02:00,
2013-12-10 13:07:00,32.4,2.9,30.16,NW,315,4.7,4.7,28,0.00,,---,0.00,VWS V14.01,2013-12-10 20:07:00,
2013-12-10 13:12:00,32.4,3.7,30.16,NE,45,4.9,4.9,29,0.00,,---,0.00,VWS V14.01,2013-12-10 20:12:00,
2013-12-10 13:17:00,32.4,2.9,30.16,North,0,4.9,4.9,28,0.00,,---,0.00,VWS V14.01,2013-12-10 20:17:00,
2013-12-10 13:22:00,32.9,3.4,30.17,NNE,22,4.9,4.9,28,0.00,,---,0.00,VWS V14.01,2013-12-10 20:22:00,
2013-12-10 13:27:00,33.3,3.7,30.16,NW,315,3.1,3.1,28,0.00,,---,0.00,VWS V14.01,2013-12-10 20:27:00,
2013-12-10 13:32:00,33.1,4.3,30.16,NE,45,3.1,3.1,29,0.00,,---,0.00,VWS V14.01,2013-12-10 20:32:00,
2013-12-10 13:37:00,32.4,2.9,30.15,NNW,338,5.1,5.1,28,0.00,,---,0.00,VWS V14.01,2013-12-10 20:37:00,
2013-12-10 13:42:00,32.8,3.3,30.15,NNW,338,3.6,3.6,28,0.00,,---,0.00,VWS V14.01,2013-12-10 20:42:00,
2013-12-10 13:47:00,33.1,4.3,30.15,North,0,2.0,2.0,29,0.00,,---,0.00,VWS V14.01,2013-12-10 20:47:00,
2013-12-10 13:52:00,33.7,5.6,30.15,NW,315,3.1,3.1,30,0.00,,---,0.00,VWS V14.01,2013-12-10 20:52:00,
2013-12-10 13:57:00,34.2,4.5,30.15,North,0,4.5,4.5,28,0.00,,---,0.00,VWS V14.01,2013-12-10 20:57:00,
2013-12-10 14:02:00,34.4,4.7,30.15,North,0,1.8,1.8,28,0.00,,---,0.00,VWS V14.01,2013-12-10 21:02:00,
2013-12-10 14:07:00,34.6,5.6,30.15,NNW,338,2.0,2.0,29,0.00,,---,0.00,VWS V14.01,2013-12-10 21:07:00,
2013-12-10 14:12:00,34.7,4.9,30.15,NE,45,3.6,3.6,28,0.00,,---,0.00,VWS V14.01,2013-12-10 21:12:00,
2013-12-10 14:17:00,34.6,4.9,30.15,NNW,338,2.5,2.5,28,0.00,,---,0.00,VWS V14.01,2013-12-10 21:17:00,
2013-12-10 14:22:00,34.2,4.5,30.15,NW,315,1.8,1.8,28,0.00,,---,0.00,VWS V14.01,2013-12-10 21:22:00,
2013-12-10 14:27:00,34.2,6.0,30.14,North,0,2.0,2.0,30,0.00,,---,0.00,VWS V14.01,2013-12-10 21:27:00,
2013-12-10 14:32:00,34.4,6.2,30.14,NE,45,1.1,1.1,30,0.00,,---,0.00,VWS V14.01,2013-12-10 21:32:00,
2013-12-10 14:37:00,34.6,4.9,30.14,NW,315,1.1,1.1,28,0.00,,---,0.00,VWS V14.01,2013-12-10 21:37:00,
2013-12-10 14:42:00,34.6,4.9,30.14,NW,315,1.3,1.3,28,0.00,,---,0.00,VWS V14.01,2013-12-10 21:42:00,
2013-12-10 14:47:00,35.5,6.4,30.14,NNW,338,1.6,1.6,29,0.00,,---,0.00,VWS V14.01,2013-12-10 21:47:00,
2013-12-10 14:52:00,37.4,8.1,30.14,NW,315,0.2,0.2,29,0.00,,---,0.00,VWS V14.01,2013-12-10 21:52:00,
2013-12-10 14:57:00,38.0,7.0,30.14,NW,315,2.2,2.2,27,0.00,,---,0.00,VWS V14.01,2013-12-10 21:57:00,
2013-12-10 15:02:00,37.8,6.8,30.14,NW,315,1.8,1.8,27,0.00,,---,0.00,VWS V14.01,2013-12-10 22:02:00,
2013-12-10 15:07:00,38.5,9.0,30.13,WNW,292,1.6,1.6,29,0.00,,---,0.00,VWS V14.01,2013-12-10 22:07:00,
2013-12-10 15:12:00,38.2,7.2,30.14,WNW,292,1.1,1.1,27,0.00,,---,0.00,VWS V14.01,2013-12-10 22:12:00,
2013-12-10 15:17:00,37.4,6.5,30.14,WNW,292,1.1,1.1,27,0.00,,---,0.00,VWS V14.01,2013-12-10 22:17:00,
2013-12-10 15:22:00,39.4,9.8,30.14,West,270,0.2,0.2,29,0.00,,---,0.00,VWS V14.01,2013-12-10 22:22:00,
2013-12-10 15:27:00,39.2,8.0,30.13,WSW,248,0.2,0.2,27,0.00,,---,0.00,VWS V14.01,2013-12-10 22:27:00,
2013-12-10 15:32:00,39.4,9.0,30.13,WNW,292,0.2,0.2,28,0.00,,---,0.00,VWS V14.01,2013-12-10 22:32:00,
2013-12-10 15:37:00,38.9,7.8,30.13,NW,315,1.3,1.3,27,0.00,,---,0.00,VWS V14.01,2013-12-10 22:37:00,
2013-12-10 15:42:00,37.8,6.0,30.13,WNW,292,0.7,0.7,26,0.00,,---,0.00,VWS V14.01,2013-12-10 22:42:00,
2013-12-10 15:47:00,37.6,6.7,30.13,NNW,338,0.7,0.7,27,0.00,,---,0.00,VWS V14.01,2013-12-10 22:47:00,
2013-12-10 15:52:00,37.3,5.6,30.12,West,270,0.7,0.7,26,0.00,,---,0.00,VWS V14.01,2013-12-10 22:52:00,
2013-12-10 15:57:00,37.1,6.2,30.12,West,270,0.4,0.4,27,0.00,,---,0.00,VWS V14.01,2013-12-10 22:57:00,
2013-12-10 16:02:00,38.2,7.2,30.12,WNW,292,1.1,1.1,27,0.00,,---,0.00,VWS V14.01,2013-12-10 23:02:00,
2013-12-10 16:07:00,38.0,7.0,30.12,NW,315,2.5,2.5,27,0.00,,---,0.00,VWS V14.01,2013-12-10 23:07:00,
2013-12-10 16:12:00,36.7,5.9,30.12,West,270,2.0,2.0,27,0.00,,---,0.00,VWS V14.01,2013-12-10 23:12:00,
2013-12-10 16:17:00,35.6,5.7,30.13,WSW,248,2.0,2.0,28,0.00,,---,0.00,VWS V14.01,2013-12-10 23:17:00,
2013-12-10 16:22:00,35.1,6.1,30.13,West,270,1.6,1.6,29,0.00,,---,0.00,VWS V14.01,2013-12-10 23:22:00,
2013-12-10 16:27:00,34.7,6.4,30.13,West,270,1.8,1.8,30,0.00,,---,0.00,VWS V14.01,2013-12-10 23:27:00,
2013-12-10 16:32:00,34.0,7.3,30.14,SW,225,2.5,2.5,32,0.00,,---,0.00,VWS V14.01,2013-12-10 23:32:00,
2013-12-10 16:37:00,33.1,7.1,30.14,SW,225,1.6,1.6,33,0.00,,---,0.00,VWS V14.01,2013-12-10 23:37:00,
2013-12-10 16:42:00,32.8,8.2,30.14,SW,225,1.6,1.6,35,0.00,,---,0.00,VWS V14.01,2013-12-10 23:42:00,
2013-12-10 16:47:00,32.4,7.8,30.14,SW,225,0.4,0.4,35,0.00,,---,0.00,VWS V14.01,2013-12-10 23:47:00,
2013-12-10 16:52:00,31.9,8.6,30.13,SSW,202,0.4,0.4,37,0.00,,---,0.00,VWS V14.01,2013-12-10 23:52:00,
2013-12-10 16:57:00,31.3,8.6,30.13,SSW,202,0.4,0.4,38,0.00,,---,0.00,VWS V14.01,2013-12-10 23:57:00,
2013-12-10 17:02:00,30.4,9.0,30.13,SSW,202,0.9,0.9,40,0.00,,---,0.00,VWS V14.01,2013-12-11 00:02:00,
2013-12-10 17:07:00,30.1,9.3,30.13,SSW,202,0.4,0.4,41,0.00,,---,0.00,VWS V14.01,2013-12-11 00:07:00,
2013-12-10 17:12:00,29.7,8.9,30.13,SSW,202,0.4,0.4,41,0.00,,---,0.00,VWS V14.01,2013-12-11 00:12:00,
2013-12-10 17:17:00,29.3,9.1,30.13,SSE,158,0.4,0.4,42,0.00,,---,0.00,VWS V14.01,2013-12-11 00:17:00,
2013-12-10 17:22:00,29.2,8.4,30.13,SSE,158,0.2,0.2,41,0.00,,---,0.00,VWS V14.01,2013-12-11 00:22:00,
2013-12-10 17:27:00,28.8,8.1,30.13,South,180,0.7,0.7,41,0.00,,---,0.00,VWS V14.01,2013-12-11 00:27:00,
2013-12-10 17:32:00,28.8,8.1,30.13,SSW,202,0.4,0.4,41,0.00,,---,0.00,VWS V14.01,2013-12-11 00:32:00,
2013-12-10 17:37:00,28.6,7.9,30.13,SSW,202,0.0,0.0,41,0.00,,---,0.00,VWS V14.01,2013-12-11 00:37:00,
2013-12-10 17:42:00,28.3,8.2,30.13,SSW,202,0.2,0.2,42,0.00,,---,0.00,VWS V14.01,2013-12-11 00:42:00,
2013-12-10 17:47:00,28.1,8.5,30.14,SE,135,0.2,0.2,43,0.00,,---,0.00,VWS V14.01,2013-12-11 00:47:00,
2013-12-10 17:52:00,27.7,7.6,30.13,SE,135,0.0,0.0,42,0.00,,---,0.00,VWS V14.01,2013-12-11 00:52:00,
2013-12-10 17:57:00,27.4,7.3,30.13,SSE,158,0.0,0.0,42,0.00,,---,0.00,VWS V14.01,2013-12-11 00:57:00,
2013-12-10 18:02:00,27.0,7.5,30.14,SSE,158,0.0,0.4,43,0.00,,---,0.00,VWS V14.01,2013-12-11 01:02:00,
2013-12-10 18:07:00,27.0,8.0,30.14,SSE,158,0.0,0.0,44,0.00,,---,0.00,VWS V14.01,2013-12-11 01:07:00,
2013-12-10 18:12:00,27.0,8.5,30.14,SE,135,0.2,0.2,45,0.00,,---,0.00,VWS V14.01,2013-12-11 01:12:00,
2013-12-10 18:17:00,27.0,8.0,30.14,SE,135,0.0,0.0,44,0.00,,---,0.00,VWS V14.01,2013-12-11 01:17:00,
2013-12-10 18:22:00,26.8,8.3,30.14,SE,135,0.2,0.2,45,0.00,,---,0.00,VWS V14.01,2013-12-11 01:22:00,
2013-12-10 18:27:00,26.8,7.8,30.14,SE,135,0.0,0.0,44,0.00,,---,0.00,VWS V14.01,2013-12-11 01:27:00,
2013-12-10 18:32:00,26.8,7.8,30.13,SE,135,0.4,0.4,44,0.00,,---,0.00,VWS V14.01,2013-12-11 01:32:00,
2013-12-10 18:37:00,26.6,8.1,30.14,SE,135,0.4,0.4,45,0.00,,---,0.00,VWS V14.01,2013-12-11 01:37:00,
2013-12-10 18:42:00,26.5,8.0,30.14,SE,135,0.0,0.0,45,0.00,,---,0.00,VWS V14.01,2013-12-11 01:42:00,
2013-12-10 18:47:00,26.5,8.5,30.14,SE,135,0.4,0.4,46,0.00,,---,0.00,VWS V14.01,2013-12-11 01:47:00,
2013-12-10 18:52:00,26.5,9.5,30.14,ESE,112,1.1,1.1,48,0.00,,---,0.00,VWS V14.01,2013-12-11 01:52:00,
2013-12-10 18:57:00,26.3,9.3,30.14,SE,135,0.7,0.7,48,0.00,,---,0.00,VWS V14.01,2013-12-11 01:57:00,
2013-12-10 19:02:00,26.1,9.1,30.13,SE,135,1.1,1.1,48,0.00,,---,0.00,VWS V14.01,2013-12-11 02:02:00,
2013-12-10 19:07:00,26.1,9.1,30.14,ESE,112,1.6,1.6,48,0.00,,---,0.00,VWS V14.01,2013-12-11 02:07:00,
2013-12-10 19:12:00,25.9,8.9,30.14,ESE,112,0.4,0.4,48,0.00,,---,0.00,VWS V14.01,2013-12-11 02:12:00,
2013-12-10 19:17:00,25.9,9.4,30.14,SE,135,0.7,0.7,49,0.00,,---,0.00,VWS V14.01,2013-12-11 02:17:00,
2013-12-10 19:22:00,25.7,9.2,30.14,SE,135,0.4,0.4,49,0.00,,---,0.00,VWS V14.01,2013-12-11 02:22:00,
2013-12-10 19:27:00,25.6,9.1,30.14,ESE,112,1.1,1.1,49,0.00,,---,0.00,VWS V14.01,2013-12-11 02:27:00,
2013-12-10 19:32:00,25.7,9.6,30.15,ESE,112,2.2,2.2,50,0.00,,---,0.00,VWS V14.01,2013-12-11 02:32:00,
2013-12-10 19:37:00,25.6,9.6,30.15,ESE,112,1.8,1.8,50,0.00,,---,0.00,VWS V14.01,2013-12-11 02:37:00,
2013-12-10 19:42:00,25.4,9.4,30.15,ESE,112,1.3,1.3,50,0.00,,---,0.00,VWS V14.01,2013-12-11 02:42:00,
2013-12-10 19:46:00,25.2,9.2,30.15,ESE,112,0.9,0.9,50,0.00,,---,0.00,VWS V14.01,2013-12-11 02:46:00,
2013-12-10 19:51:00,24.8,8.8,30.15,ESE,112,0.4,0.4,50,0.00,,---,0.00,VWS V14.01,2013-12-11 02:51:00,
2013-12-10 19:56:00,24.8,9.2,30.15,ESE,112,1.6,1.6,51,0.00,,---,0.00,VWS V14.01,2013-12-11 02:56:00,
2013-12-10 20:01:00,24.8,8.8,30.15,ESE,112,0.7,0.7,50,0.00,,---,0.00,VWS V14.01,2013-12-11 03:01:00,
2013-12-10 20:06:00,24.8,8.4,30.15,SE,135,0.4,0.4,49,0.00,,---,0.00,VWS V14.01,2013-12-11 03:06:00,
2013-12-10 20:11:00,24.7,8.3,30.15,SE,135,1.3,1.3,49,0.00,,---,0.00,VWS V14.01,2013-12-11 03:11:00,
2013-12-10 20:16:00,24.8,8.8,30.15,SE,135,0.7,0.7,50,0.00,,---,0.00,VWS V14.01,2013-12-11 03:16:00,
2013-12-10 20:21:00,24.8,8.4,30.15,ESE,112,0.4,0.4,49,0.00,,---,0.00,VWS V14.01,2013-12-11 03:21:00,
2013-12-10 20:26:00,24.7,8.7,30.14,SE,135,0.4,0.4,50,0.00,,---,0.00,VWS V14.01,2013-12-11 03:26:00,
2013-12-10 20:31:00,24.7,8.7,30.15,SE,135,0.7,0.7,50,0.00,,---,0.00,VWS V14.01,2013-12-11 03:31:00,
2013-12-10 20:36:00,24.7,8.7,30.14,ESE,112,0.9,0.9,50,0.00,,---,0.00,VWS V14.01,2013-12-11 03:36:00,
2013-12-10 20:41:00,24.5,8.5,30.15,ESE,112,1.1,1.1,50,0.00,,---,0.00,VWS V14.01,2013-12-11 03:41:00,
2013-12-10 20:46:00,24.3,8.4,30.15,ESE,112,1.8,1.8,50,0.00,,---,0.00,VWS V14.01,2013-12-11 03:46:00,
2013-12-10 20:51:00,24.1,8.2,30.15,ESE,112,0.0,0.0,50,0.00,,---,0.00,VWS V14.01,2013-12-11 03:51:00,
2013-12-10 20:56:00,24.1,8.6,30.16,East,90,1.1,1.1,51,0.00,,---,0.00,VWS V14.01,2013-12-11 03:56:00,
2013-12-10 21:01:00,23.9,8.4,30.15,ESE,112,1.8,1.8,51,0.00,,---,0.00,VWS V14.01,2013-12-11 04:01:00,
2013-12-10 21:06:00,23.9,8.9,30.15,ESE,112,1.6,1.6,52,0.00,,---,0.00,VWS V14.01,2013-12-11 04:06:00,
2013-12-10 21:11:00,23.8,9.2,30.15,ESE,112,1.3,1.3,53,0.00,,---,0.00,VWS V14.01,2013-12-11 04:11:00,
2013-12-10 21:16:00,23.6,9.0,30.15,ESE,112,0.4,0.4,53,0.00,,---,0.00,VWS V14.01,2013-12-11 04:16:00,
2013-12-10 21:21:00,23.6,8.6,30.15,ESE,112,0.9,0.9,52,0.00,,---,0.00,VWS V14.01,2013-12-11 04:21:00,
2013-12-10 21:26:00,23.8,8.8,30.15,ESE,112,1.1,1.1,52,0.00,,---,0.00,VWS V14.01,2013-12-11 04:26:00,
2013-12-10 21:31:00,23.8,9.2,30.15,ESE,112,1.6,1.6,53,0.00,,---,0.00,VWS V14.01,2013-12-11 04:31:00,
2013-12-10 21:36:00,23.8,8.8,30.15,ESE,112,0.7,0.7,52,0.00,,---,0.00,VWS V14.01,2013-12-11 04:36:00,
2013-12-10 21:41:00,23.6,9.0,30.15,ESE,112,0.7,0.7,53,0.00,,---,0.00,VWS V14.01,2013-12-11 04:41:00,
2013-12-10 21:46:00,23.6,9.0,30.15,ESE,112,0.4,0.4,53,0.00,,---,0.00,VWS V14.01,2013-12-11 04:46:00,
2013-12-10 21:51:00,23.6,9.0,30.15,ESE,112,0.9,0.9,53,0.00,,---,0.00,VWS V14.01,2013-12-11 04:51:00,
2013-12-10 21:56:00,23.4,8.8,30.15,WNW,292,1.6,1.6,53,0.00,,---,0.00,VWS V14.01,2013-12-11 04:56:00,
2013-12-10 22:01:00,23.0,8.4,30.15,West,270,0.0,0.0,53,0.00,,---,0.00,VWS V14.01,2013-12-11 05:01:00,
2013-12-10 22:06:00,22.3,8.2,30.16,West,270,0.0,0.0,54,0.00,,---,0.00,VWS V14.01,2013-12-11 05:06:00,
2013-12-10 22:11:00,22.0,7.5,30.16,West,270,0.0,0.0,53,0.00,,---,0.00,VWS V14.01,2013-12-11 05:11:00,
2013-12-10 22:16:00,21.8,7.3,30.16,West,270,0.0,0.0,53,0.00,,---,0.00,VWS V14.01,2013-12-11 05:16:00,
2013-12-10 22:21:00,21.4,7.8,30.16,West,270,0.0,0.0,55,0.00,,---,0.00,VWS V14.01,2013-12-11 05:21:00,
2013-12-10 22:26:00,21.6,8.3,30.16,ENE,68,0.4,0.4,56,0.00,,---,0.00,VWS V14.01,2013-12-11 05:26:00,
2013-12-10 22:31:00,21.4,8.6,30.17,ENE,68,0.4,0.4,57,0.00,,---,0.00,VWS V14.01,2013-12-11 05:31:00,
2013-12-10 22:36:00,21.8,9.3,30.16,East,90,0.2,0.2,58,0.00,,---,0.00,VWS V14.01,2013-12-11 05:36:00,
2013-12-10 22:41:00,21.8,9.3,30.16,East,90,0.0,0.0,58,0.00,,---,0.00,VWS V14.01,2013-12-11 05:41:00,
2013-12-10 22:46:00,21.6,8.7,30.16,East,90,0.0,0.0,57,0.00,,---,0.00,VWS V14.01,2013-12-11 05:46:00,
2013-12-10 22:51:00,21.4,9.3,30.16,East,90,1.1,1.1,59,0.00,,---,0.00,VWS V14.01,2013-12-11 05:51:00,
2013-12-10 22:56:00,21.8,10.4,30.16,ESE,112,0.4,0.4,61,0.00,,---,0.00,VWS V14.01,2013-12-11 05:56:00,
2013-12-10 23:01:00,21.4,10.1,30.17,ESE,112,0.7,0.7,61,0.00,,---,0.00,VWS V14.01,2013-12-11 06:01:00,
2013-12-10 23:06:00,21.2,9.9,30.16,ESE,112,0.4,0.4,61,0.00,,---,0.00,VWS V14.01,2013-12-11 06:06:00,
2013-12-10 23:11:00,21.1,10.1,30.16,ESE,112,1.3,1.3,62,0.00,,---,0.00,VWS V14.01,2013-12-11 06:11:00,
2013-12-10 23:16:00,21.1,9.8,30.17,ESE,112,0.0,0.0,61,0.00,,---,0.00,VWS V14.01,2013-12-11 06:16:00,
2013-12-10 23:21:00,20.7,9.4,30.17,ESE,112,0.0,0.0,61,0.00,,---,0.00,VWS V14.01,2013-12-11 06:21:00,
2013-12-10 23:26:00,20.5,9.6,30.17,ESE,112,0.0,0.0,62,0.00,,---,0.00,VWS V14.01,2013-12-11 06:26:00,
2013-12-10 23:31:00,20.5,9.6,30.17,ESE,112,0.4,0.4,62,0.00,,---,0.00,VWS V14.01,2013-12-11 06:31:00,
2013-12-10 23:36:00,20.2,9.6,30.16,ESE,112,0.0,0.0,63,0.00,,---,0.00,VWS V14.01,2013-12-11 06:36:00,
2013-12-10 23:41:00,20.2,9.6,30.16,ESE,112,0.9,0.9,63,0.00,,---,0.00,VWS V14.01,2013-12-11 06:41:00,
2013-12-10 23:46:00,20.7,10.1,30.16,ESE,112,0.9,0.9,63,0.00,,---,0.00,VWS V14.01,2013-12-11 06:46:00,
2013-12-10 23:51:00,20.7,9.8,30.16,ESE,112,0.4,0.4,62,0.00,,---,0.00,VWS V14.01,2013-12-11 06:51:00,
2013-12-10 23:56:00,20.9,9.6,30.16,SE,135,0.7,0.7,61,0.00,,---,0.00,VWS V14.01,2013-12-11 06:56:00,